CW2597 Weather Reports


time (UTC)temp
C
wind
direction
speed
KPH
gust
KPH
rain 1hr
cm
rain 24hr
cm
rain mn
cm
humidity
%
barometer
mb
20260506144511 8 20 0.0 4.8 0.08 1.91 1.91 89 1007.6
20260506144205 8 20 1.6 4.8 0.08 1.91 1.91 89 1008.7
20260506143511 8 13 0.0 0.0 0.08 1.88 1.88 90 1007.6
20260506143204 8 0 0.0 0.0 0.08 1.88 1.88 90 1008.7
20260506142511 8 34 0.0 4.8 0.10 1.88 1.88 90 1007.6
20260506142205 8 15 1.6 12.9 0.13 1.88 1.88 90 1008.7
20260506141704 8 22 0.0 16.1 0.15 1.88 1.88 91 1008.7
20260506141511 8 61 1.6 16.1 0.13 1.85 1.85 91 1007.5
20260506141204 8 12 1.6 12.9 0.15 1.85 1.85 91 1008.7
20260506140704 8 36 0.0 0.0 0.15 1.85 1.85 91 1008.7
20260506140511 8 340 0.0 0.0 0.15 1.85 1.85 91 1007.4
20260506140204 8 321 0.0 4.8 0.15 1.85 1.85 91 1008.6
20260506135704 8 312 0.0 4.8 0.15 1.83 1.83 91 1008.6
20260506135511 8 310 0.0 3.2 0.15 1.83 1.83 91 1007.4
20260506134704 8 54 1.6 8.0 0.18 1.83 1.83 91 1008.4
20260506134511 8 345 1.6 8.0 0.15 1.83 1.83 91 1007.3
20260506134204 8 6 1.6 9.7 0.18 1.83 1.83 91 1008.5
20260506133511 8 44 0.0 0.0 0.15 1.80 1.80 91 1007.3
20260506132704 8 0 3.2 16.1 0.15 1.78 1.78 91 1008.5
20260506132511 9 2 3.2 16.1 0.18 1.78 1.78 91 1007.3
20260506132204 9 354 1.6 8.0 0.15 1.75 1.75 91 1008.4
20260506130704 9 260 0.0 3.2 0.15 1.73 1.73 92 1008.4
20260506130511 9 3 0.0 3.2 0.15 1.70 1.70 92 1007.2
20260506130204 9 340 0.0 1.6 0.15 1.70 1.70 92 1008.3
20260506125704 9 333 0.0 1.6 0.15 1.68 1.68 92 1008.3
20260506125204 9 311 0.0 0.0 0.15 1.68 1.68 91 1008.2
20260506124704 9 15 1.6 9.7 0.15 1.65 1.65 91 1008.3
20260506124511 9 38 1.6 9.7 0.15 1.65 1.65 91 1007.1
20260506124204 9 31 3.2 8.0 0.15 1.65 1.65 91 1008.2
20260506123704 9 6 1.6 4.8 0.15 1.65 1.65 91 1008.2
20260506123511 9 44 1.6 4.8 0.15 1.65 1.65 91 1007.1
20260506123204 9 7 0.0 0.0 0.15 1.63 1.63 92 1008.2
20260506122704 9 2 0.0 0.0 0.18 1.63 1.63 92 1008.2
20260506122511 9 350 0.0 0.0 0.15 1.60 1.60 92 1007.0
20260506122204 9 299 0.0 0.0 0.18 1.60 1.60 92 1008.1
20260506121705 9 2 0.0 0.0 0.20 1.60 1.60 92 1008.2
20260506121511 9 3 0.0 0.0 0.18 1.57 1.57 92 1007.1
20260506120704 9 2 0.0 0.0 0.23 1.55 1.55 92 1008.2
20260506120511 9 12 0.0 0.0 0.23 1.55 1.55 92 1007.1
20260506120204 9 352 0.0 0.0 0.23 1.55 1.55 92 1008.1
20260506115704 9 358 0.0 3.2 0.23 1.55 1.55 92 1008.1
20260506115511 9 358 0.0 3.2 0.23 1.55 1.55 92 1007.0
20260506115204 9 35 1.6 4.8 0.23 1.52 1.52 91 1008.1
20260506113704 8 5 0.0 3.2 0.25 1.47 1.47 92 1008.0
20260506113204 8 352 1.6 8.0 0.25 1.45 1.45 92 1008.0
20260506112512 8 40 0.0 3.2 0.25 1.45 1.45 92 1006.8
20260506112205 8 10 0.0 9.7 0.25 1.42 1.42 92 1008.0
20260506111704 8 340 0.0 8.0 0.25 1.40 1.40 91 1008.0
20260506111204 8 8 3.2 8.0 0.25 1.37 1.37 92 1007.9
20260506110705 8 357 0.0 0.0 0.23 1.35 1.35 92 1007.9
20260506110513 8 269 0.0 1.6 0.23 1.35 1.35 92 1006.6
20260506110204 8 350 0.0 4.8 0.23 1.32 1.32 92 1007.8
20260506105704 8 20 0.0 0.0 0.23 1.30 1.30 92 1007.9
20260506105512 8 11 0.0 0.0 0.23 1.30 1.30 92 1006.7
20260506104705 8 13 0.0 1.6 0.18 1.27 1.27 92 1007.8
20260506104512 8 28 0.0 1.6 0.18 1.27 1.27 92 1006.7
20260506104204 8 3 0.0 0.0 0.18 1.24 1.24 92 1007.8
20260506103704 8 20 0.0 0.0 0.15 1.22 1.22 92 1007.8
20260506103512 8 17 0.0 0.0 0.15 1.22 1.22 92 1006.6
20260506103204 8 7 0.0 0.0 0.15 1.19 1.19 92 1007.8
20260506102705 8 6 0.0 0.0 0.15 1.17 1.17 92 1007.8
20260506102512 8 40 0.0 0.0 0.15 1.17 1.17 92 1006.6
20260506102205 8 78 0.0 0.0 0.13 1.17 1.17 92 1007.8
20260506101512 8 40 0.0 1.6 0.10 1.14 1.14 92 1006.5
20260506101204 8 59 0.0 8.0 0.08 1.12 1.12 92 1007.6
20260506095512 8 13 0.0 1.6 0.05 1.09 1.09 92 1006.3
20260506095204 8 345 0.0 0.0 0.05 1.09 1.09 92 1007.5
20260506094705 8 288 0.0 0.0 0.05 1.09 1.09 92 1007.5
20260506094204 8 343 0.0 0.0 0.05 1.07 1.07 93 1007.4
20260506093704 8 318 0.0 8.0 0.05 1.07 1.07 92 1007.3
20260506093512 8 289 0.0 8.0 0.05 1.07 1.07 92 1006.2
20260506093204 8 336 0.0 0.0 0.05 1.07 1.07 92 1007.3
20260506092704 8 338 0.0 0.0 0.05 1.04 1.04 92 1007.3
20260506092512 8 360 0.0 0.0 0.05 1.04 1.04 92 1006.2
20260506092204 8 356 0.0 0.0 0.05 1.04 1.04 92 1007.3
20260506091512 8 358 0.0 0.0 0.05 1.04 1.04 92 1006.1
20260506091204 8 349 0.0 1.6 0.05 1.04 1.04 92 1007.3
20260506090704 8 350 1.6 8.0 0.05 1.04 1.04 91 1007.4
20260506090512 8 350 1.6 6.4 0.05 1.04 1.04 91 1006.2
20260506090204 8 3 1.6 8.0 0.05 1.04 1.04 91 1007.4
20260506085704 7 353 0.0 0.0 0.05 1.04 1.04 91 1007.3
20260506085512 7 20 0.0 0.0 0.05 1.02 1.02 91 1006.2
20260506085204 7 355 0.0 0.0 0.05 1.02 1.02 91 1007.4
20260506084704 7 0 0.0 0.0 0.05 1.02 1.02 91 1007.3
20260506084512 7 345 0.0 0.0 0.05 1.02 1.02 91 1006.1
20260506084204 7 359 0.0 0.0 0.08 1.02 1.02 91 1007.4
20260506083704 7 30 0.0 0.0 0.08 1.02 1.02 91 1007.3
20260506083512 7 28 0.0 0.0 0.10 1.02 1.02 91 1006.2
20260506082704 7 4 0.0 4.8 0.08 0.99 0.99 91 1007.4
20260506082204 7 86 1.6 8.0 0.08 0.99 0.99 90 1007.4
20260506081704 7 21 0.0 1.6 0.10 0.99 0.99 91 1007.3
20260506081512 7 12 0.0 0.0 0.10 0.99 0.99 91 1006.1
20260506081204 7 37 0.0 0.0 0.08 0.99 0.99 90 1007.3
20260506080705 7 53 3.2 9.7 0.08 0.99 0.99 90 1007.3
20260506080512 7 29 0.0 0.0 0.08 0.99 0.99 90 1006.1
20260506073512 7 68 3.2 12.9 0.05 0.91 0.91 91 1006.0
20260506073204 7 47 3.2 11.3 0.05 0.94 0.91 91 1007.2
20260506072704 7 68 1.6 8.0 0.08 0.94 0.91 91 1007.2
20260506072511 7 76 0.0 1.6 0.08 0.91 0.91 91 1006.0
20260506072204 7 33 0.0 0.0 0.08 0.94 0.91 91 1007.2
20260506071704 7 33 0.0 0.0 0.05 0.91 0.89 91 1007.2
20260506071511 7 2 0.0 0.0 0.08 0.89 0.89 91 1006.0
20260506070704 7 51 0.0 0.0 0.10 0.91 0.89 91 1007.1
20260506070512 7 356 0.0 0.0 0.10 0.89 0.89 91 1005.9
20260506070204 7 38 0.0 0.0 0.10 0.91 0.89 91 1007.1
20260506062511 7 50 0.0 0.0 0.15 0.84 0.84 91 1005.7
20260506062204 7 74 0.0 4.8 0.15 0.86 0.84 91 1006.9
20260506061704 7 48 4.8 20.9 0.15 0.86 0.84 91 1006.8
20260506061511 6 69 4.8 16.1 0.15 0.81 0.81 91 1005.7
20260506061204 7 47 4.8 16.1 0.15 0.84 0.81 91 1006.8
20260506060704 7 63 4.8 14.5 0.15 0.81 0.79 91 1006.8
20260506060512 7 53 4.8 14.5 0.15 0.79 0.79 91 1005.6
20260506060204 7 53 3.2 16.1 0.15 0.81 0.79 91 1006.8
20260506051204 7 32 0.0 0.0 0.15 0.71 0.69 91 1006.8
20260506050706 7 42 0.0 1.6 0.15 0.71 0.66 91 1006.8
20260506050512 7 52 0.0 0.0 0.15 0.66 0.66 91 1005.6
20260506050206 7 40 0.0 0.0 0.15 0.71 0.66 91 1006.8
20260506044706 7 15 0.0 0.0 0.15 0.71 0.61 91 1006.8
20260506044206 7 9 0.0 0.0 0.15 0.71 0.61 91 1006.8
20260506043705 7 338 0.0 1.6 0.15 0.71 0.58 91 1006.8
20260506043511 7 306 0.0 1.6 0.15 0.58 0.58 91 1005.6
20260506043206 7 78 0.0 3.2 0.15 0.69 0.56 91 1006.8
20260506042705 7 63 0.0 0.0 0.15 0.69 0.56 91 1006.8
20260506042512 7 350 0.0 0.0 0.15 0.56 0.56 91 1005.6
20260506042205 7 27 0.0 4.8 0.15 0.66 0.53 91 1006.7
20260506041706 7 59 0.0 1.6 0.15 0.69 0.53 91 1006.7
20260506041511 8 345 0.0 0.0 0.15 0.51 0.51 91 1005.5
20260506041205 7 350 0.0 0.0 0.15 0.66 0.51 91 1006.8
20260506040705 8 54 0.0 0.0 0.15 0.66 0.51 91 1006.7
20260506040206 8 45 0.0 1.6 0.15 0.66 0.51 91 1006.7
20260506035705 8 351 0.0 1.6 0.18 0.66 0.51 90 1006.7
20260506035511 8 14 0.0 1.6 0.15 0.48 0.48 90 1005.5
20260506035205 8 41 0.0 0.0 0.18 0.64 0.48 90 1006.7
20260506034705 8 23 0.0 8.0 0.15 0.61 0.46 90 1006.7
20260506034511 8 71 0.0 8.0 0.18 0.46 0.46 90 1005.5
20260506034205 8 346 0.0 0.0 0.15 0.61 0.43 90 1006.7
20260506033706 8 18 0.0 4.8 0.18 0.61 0.43 90 1006.7
20260506033511 8 61 0.0 4.8 0.15 0.43 0.43 90 1005.6
20260506032705 8 0 0.0 0.0 0.18 0.58 0.41 90 1006.8
20260506032511 8 32 0.0 0.0 0.18 0.41 0.41 90 1005.6
20260506032206 8 53 0.0 3.2 0.18 0.61 0.41 91 1006.8
20260506031705 8 345 0.0 3.2 0.18 0.58 0.38 90 1006.8
20260506031511 8 22 0.0 4.8 0.18 0.38 0.38 90 1005.7
20260506031205 8 32 0.0 0.0 0.20 0.61 0.38 90 1006.9
20260506030706 8 17 0.0 0.0 0.18 0.58 0.36 90 1006.9
20260506030512 8 340 0.0 0.0 0.15 0.33 0.33 90 1005.7
20260506025706 8 9 0.0 0.0 0.15 0.58 0.33 90 1006.9
20260506025511 8 282 0.0 0.0 0.18 0.33 0.33 90 1005.7
20260506025205 8 53 0.0 0.0 0.15 0.56 0.30 90 1006.9
20260506024706 8 7 0.0 1.6 0.18 0.58 0.30 90 1006.9
20260506024511 8 356 0.0 0.0 0.15 0.28 0.28 90 1005.8
20260506024206 8 17 0.0 0.0 0.15 0.56 0.28 90 1006.9
20260506023705 9 338 0.0 3.2 0.15 0.56 0.25 89 1007.0
20260506023511 9 350 0.0 3.2 0.15 0.25 0.25 89 1005.9
20260506023206 9 335 0.0 0.0 0.15 0.56 0.23 90 1007.0
20260506022706 9 43 0.0 0.0 0.15 0.53 0.23 89 1006.9
20260506022511 9 2 0.0 0.0 0.15 0.23 0.23 89 1005.9
20260506022205 9 10 0.0 0.0 0.15 0.53 0.23 89 1006.9
20260506021705 9 0 0.0 12.9 0.15 0.53 0.20 89 1007.0
20260506021511 9 13 0.0 12.9 0.15 0.20 0.20 89 1006.0
20260506021205 9 2 0.0 3.2 0.15 0.51 0.18 89 1007.0
20260506020512 10 32 0.0 1.6 0.15 0.18 0.18 89 1006.0
20260506020205 10 13 0.0 0.0 0.13 0.51 0.15 89 1007.1
20260506015511 10 11 0.0 0.0 0.13 0.15 0.15 89 1006.1
20260506015206 10 355 0.0 0.0 0.13 0.51 0.15 89 1007.2
20260506014705 10 12 0.0 0.0 0.10 0.48 0.13 89 1007.2
20260506013706 10 40 0.0 0.0 0.08 0.46 0.10 88 1007.3
20260506013511 10 32 0.0 0.0 0.08 0.10 0.10 88 1006.2
20260506013205 10 10 0.0 1.6 0.08 0.46 0.08 88 1007.3
20260506012705 10 259 0.0 3.2 0.08 0.46 0.08 88 1007.3
20260506012511 10 310 0.0 1.6 0.08 0.08 0.08 88 1006.2
20260506012206 10 345 0.0 0.0 0.05 0.43 0.05 88 1007.3
20260506011705 10 9 0.0 0.0 0.05 0.43 0.05 88 1007.3
20260506011206 10 2 0.0 0.0 0.05 0.43 0.05 87 1007.4
20260506010705 10 357 0.0 0.0 0.05 0.43 0.05 87 1007.3
20260506010511 10 333 0.0 0.0 0.05 0.05 0.05 87 1006.3
20260506010206 10 328 0.0 0.0 0.05 0.43 0.05 87 1007.3
20260506005511 10 350 0.0 0.0 0.03 0.03 0.03 86 1006.4
20260506005206 11 350 0.0 0.0 0.03 0.43 0.03 85 1007.4
20260506004705 11 357 0.0 0.0 0.03 0.43 0.03 85 1007.4
20260506004511 11 356 0.0 0.0 0.03 0.03 0.03 85 1006.3
20260506004205 11 14 0.0 0.0 0.03 0.43 0.03 85 1007.4
20260506003706 11 35 0.0 0.0 0.03 0.43 0.03 85 1007.5
20260506003511 11 35 0.0 0.0 0.03 0.03 0.03 84 1006.4
20260506003205 11 13 0.0 0.0 0.00 0.41 0.00 84 1007.6
20260506002705 11 14 0.0 0.0 0.00 0.41 0.00 85 1007.6
20260506002511 11 24 0.0 0.0 0.00 0.00 0.00 85 1006.5
20260506002205 11 56 0.0 0.0 0.00 0.41 0.00 85 1007.6
20260506001706 11 325 0.0 0.0 0.00 0.41 0.00 86 1007.6
20260506001512 11 350 0.0 0.0 0.00 0.00 0.00 85 1006.6
20260506001205 11 12 0.0 0.0 0.00 0.41 0.00 85 1007.7
20260506000706 11 13 0.0 0.0 0.00 0.41 0.00 85 1007.7
20260506000511 11 13 0.0 0.0 0.00 0.00 0.00 85 1006.6
20260506000206 11 25 0.0 0.0 0.00 0.43 0.00 85 1007.7
20260505235705 11 54 0.0 0.0 0.00 0.43 0.00 85 1007.8
20260505235511 11 66 0.0 0.0 0.00 0.00 0.00 85 1006.7
20260505235205 11 55 0.0 0.0 0.00 0.43 0.00 85 1007.8
20260505234706 11 43 0.0 0.0 0.00 0.43 0.00 85 1007.9
20260505234512 11 13 0.0 0.0 0.00 0.00 0.00 85 1006.8
20260505234205 11 29 0.0 0.0 0.00 0.43 0.00 85 1007.9
20260505233706 11 314 0.0 0.0 0.00 0.46 0.00 85 1007.9
20260505233511 11 13 0.0 0.0 0.00 0.00 0.00 85 1006.9
20260505233205 11 358 0.0 0.0 0.00 0.46 0.00 85 1008.0
20260505232705 11 40 0.0 0.0 0.00 0.46 0.00 85 1008.0
20260505232511 11 252 0.0 0.0 0.00 0.00 0.00 85 1006.9
20260505232206 11 354 0.0 0.0 0.00 0.48 0.00 85 1008.0
20260505231705 11 355 0.0 0.0 0.00 0.48 0.00 85 1008.0
20260505231205 11 29 0.0 0.0 0.00 0.48 0.00 85 1008.0
20260505230706 11 9 0.0 0.0 0.00 0.51 0.00 86 1008.1
20260505230511 11 17 0.0 0.0 0.00 0.00 0.00 86 1007.0
20260505230205 11 328 0.0 0.0 0.00 0.51 0.00 86 1008.1
20260505225706 11 10 0.0 0.0 0.00 0.51 0.00 86 1008.1
20260505225511 11 16 0.0 0.0 0.00 0.00 0.00 86 1007.0
20260505225206 11 52 0.0 0.0 0.00 0.53 0.00 86 1008.2
20260505224705 11 356 0.0 0.0 0.00 0.53 0.00 86 1008.1
20260505224511 11 15 0.0 0.0 0.00 0.00 0.00 86 1007.1
20260505223705 11 13 0.0 0.0 0.00 0.56 0.00 87 1008.2
20260505223511 11 50 0.0 0.0 0.00 0.00 0.00 86 1007.2
20260505223205 11 39 0.0 0.0 0.00 0.58 0.00 87 1008.2
20260505222705 11 31 0.0 0.0 0.00 0.58 0.00 87 1008.2
20260505222205 11 358 0.0 0.0 0.00 0.61 0.00 87 1008.3
20260505221205 11 330 0.0 0.0 0.00 0.61 0.00 88 1008.3
20260505220205 11 36 0.0 0.0 0.00 0.61 0.00 88 1008.3
20260505215705 11 40 0.0 0.0 0.00 0.64 0.61 88 1008.4
20260505215511 11 40 0.0 0.0 0.00 0.61 0.61 88 1007.3
20260505215205 11 41 0.0 1.6 0.00 0.64 0.61 88 1008.5
20260505214705 11 64 0.0 0.0 0.00 0.64 0.61 88 1008.5
20260505214511 11 358 0.0 0.0 0.00 0.61 0.61 88 1007.4
20260505213705 11 39 0.0 0.0 0.00 0.71 0.61 88 1008.5
20260505213205 11 34 0.0 0.0 0.00 0.76 0.61 88 1008.5
20260505212705 11 52 0.0 1.6 0.00 0.79 0.61 89 1008.5
20260505212511 11 54 0.0 1.6 0.00 0.61 0.61 89 1007.5
20260505212206 11 60 0.0 0.0 0.00 0.79 0.61 89 1008.5
20260505211511 11 40 0.0 0.0 0.00 0.61 0.61 89 1007.4
20260505210705 11 43 0.0 0.0 0.00 0.84 0.61 90 1008.5
20260505210511 11 358 0.0 0.0 0.00 0.61 0.61 90 1007.5
20260505205705 11 7 0.0 0.0 0.00 0.84 0.61 90 1008.5
20260505205511 11 7 0.0 0.0 0.00 0.61 0.61 90 1007.4
20260505204511 11 358 0.0 0.0 0.00 0.61 0.61 89 1007.5
20260505204206 11 358 0.0 0.0 0.00 0.84 0.61 89 1008.6
20260505203705 11 3 0.0 0.0 0.00 0.84 0.61 89 1008.6
20260505203511 11 3 0.0 0.0 0.00 0.61 0.61 89 1007.5
20260505203205 11 5 0.0 0.0 0.00 0.86 0.61 89 1008.6
20260505202705 11 13 0.0 0.0 0.00 0.86 0.61 89 1008.7
20260505202511 11 14 0.0 0.0 0.00 0.61 0.61 89 1007.6
20260505202205 11 13 0.0 0.0 0.00 0.86 0.61 89 1008.7
20260505201705 11 10 0.0 0.0 0.00 0.86 0.61 89 1008.7
20260505201512 11 335 0.0 0.0 0.00 0.61 0.61 89 1007.6
20260505201205 11 0 0.0 0.0 0.00 0.86 0.61 89 1008.7
20260505200705 11 357 0.0 0.0 0.00 0.86 0.61 89 1008.7
20260505200511 11 3 0.0 0.0 0.00 0.61 0.61 89 1007.6
20260505200205 11 358 0.0 0.0 0.00 0.86 0.61 89 1008.6
20260505195705 11 355 0.0 0.0 0.00 0.86 0.61 88 1008.6
20260505195205 11 356 0.0 0.0 0.00 0.86 0.61 88 1008.6
20260505194705 11 350 0.0 0.0 0.00 0.89 0.61 88 1008.6
20260505194510 11 350 0.0 0.0 0.00 0.61 0.61 88 1007.6
20260505193705 12 340 0.0 0.0 0.00 0.89 0.61 88 1008.6
20260505193511 12 345 0.0 0.0 0.00 0.61 0.61 88 1007.6
20260505193205 12 303 0.0 0.0 0.00 0.94 0.61 88 1008.7
20260505192205 12 7 0.0 0.0 0.00 0.97 0.61 87 1008.7
20260505191705 12 3 0.0 0.0 0.00 0.99 0.61 87 1008.6
20260505191511 12 4 0.0 0.0 0.00 0.61 0.61 87 1007.5
20260505191205 12 2 0.0 0.0 0.00 1.04 0.61 87 1008.5
20260505190705 12 4 0.0 0.0 0.00 1.09 0.61 87 1008.4
20260505190510 12 356 0.0 0.0 0.00 0.61 0.61 87 1007.4
20260505185705 12 1 0.0 0.0 0.00 1.24 0.61 86 1008.3
20260505185510 12 7 0.0 0.0 0.00 0.61 0.61 86 1007.3
20260505185205 12 6 0.0 0.0 0.00 1.27 0.61 86 1008.3
20260505184705 12 347 0.0 0.0 0.00 1.35 0.61 86 1008.3
20260505184511 12 350 0.0 0.0 0.00 0.61 0.61 86 1007.3
20260505184205 12 352 0.0 0.0 0.00 1.37 0.61 86 1008.3
20260505183705 12 15 0.0 0.0 0.00 1.37 0.61 86 1008.4
20260505183511 12 38 0.0 0.0 0.00 0.61 0.61 86 1007.4
20260505183205 12 16 0.0 0.0 0.00 1.37 0.61 86 1008.4
20260505182705 12 36 0.0 0.0 0.00 1.37 0.61 86 1008.4
20260505182510 12 24 0.0 0.0 0.00 0.61 0.61 86 1007.4
20260505182205 12 25 0.0 0.0 0.00 1.42 0.61 86 1008.4
20260505181705 12 356 0.0 0.0 0.00 1.42 0.61 86 1008.4
20260505181510 12 356 0.0 0.0 0.00 0.61 0.61 86 1007.3
20260505181205 12 76 0.0 0.0 0.00 1.42 0.61 86 1008.3
20260505180705 12 21 0.0 0.0 0.00 1.42 0.61 86 1008.3
20260505180510 12 33 0.0 0.0 0.00 0.61 0.61 86 1007.3
20260505175705 12 75 0.0 0.0 0.00 1.42 0.61 86 1008.3
20260505175510 12 76 0.0 0.0 0.00 0.61 0.61 86 1007.3
20260505175205 12 59 0.0 0.0 0.00 1.42 0.61 86 1008.4
20260505174704 12 91 0.0 0.0 0.00 1.42 0.61 86 1008.4
20260505174510 12 91 0.0 0.0 0.00 0.61 0.61 85 1007.4
20260505174204 12 42 0.0 0.0 0.00 1.42 0.61 86 1008.4
20260505173704 12 25 0.0 0.0 0.00 1.42 0.61 85 1008.4
20260505173204 12 24 0.0 0.0 0.00 1.42 0.61 85 1008.4
20260505172705 12 337 0.0 0.0 0.00 1.42 0.61 85 1008.4
20260505172205 12 48 0.0 0.0 0.00 1.42 0.61 85 1008.4
20260505171510 12 54 0.0 0.0 0.00 0.61 0.61 84 1007.4
20260505171205 12 350 0.0 0.0 0.00 1.42 0.61 85 1008.5
20260505170705 12 124 0.0 0.0 0.00 1.42 0.61 84 1008.6
20260505170510 12 135 0.0 0.0 0.00 0.61 0.61 84 1007.5
20260505170204 12 18 0.0 0.0 0.00 1.42 0.61 84 1008.7
20260505165705 12 59 0.0 0.0 0.00 1.42 0.61 84 1008.7
20260505165205 12 23 0.0 0.0 0.00 1.42 0.61 84 1008.7
20260505164705 12 93 0.0 0.0 0.00 1.42 0.61 84 1008.7
20260505164510 12 40 0.0 0.0 0.00 0.61 0.61 84 1007.6
20260505164205 12 64 0.0 0.0 0.00 1.42 0.61 84 1008.7
20260505163704 12 29 0.0 0.0 0.00 1.42 0.61 84 1008.7
20260505163510 12 25 0.0 0.0 0.00 0.61 0.61 84 1007.6
20260505163205 12 349 0.0 0.0 0.00 1.42 0.61 84 1008.7
20260505162511 12 350 0.0 0.0 0.00 0.61 0.61 84 1007.6
20260505162205 12 21 0.0 0.0 0.00 1.42 0.61 84 1008.7
20260505161510 12 323 0.0 0.0 0.00 0.61 0.61 84 1007.7
20260505161205 12 335 0.0 0.0 0.00 1.42 0.61 84 1008.7
20260505160705 12 345 0.0 0.0 0.00 1.42 0.61 85 1008.7
20260505160205 12 5 0.0 0.0 0.00 1.42 0.61 85 1008.7
20260505153205 12 16 0.0 0.0 0.00 1.42 0.61 86 1009.0
20260505152705 12 21 0.0 0.0 0.00 1.42 0.61 86 1009.1
20260505152510 12 345 0.0 0.0 0.00 0.61 0.61 86 1008.0
20260505152204 12 12 0.0 0.0 0.00 1.42 0.61 86 1009.1
20260505151705 12 352 0.0 0.0 0.00 1.42 0.61 86 1009.2
20260505151205 12 356 0.0 0.0 0.00 1.42 0.61 86 1009.2
20260505150705 12 354 0.0 0.0 0.00 1.42 0.61 86 1009.3
20260505150510 12 25 0.0 0.0 0.00 0.61 0.61 87 1008.3
20260505150205 12 350 0.0 0.0 0.00 1.42 0.61 87 1009.3